Location: Caltech
(34.1382°N, 118.1253°W)
Time: 09:57:41
(UTC-07:00)

Uribyol 2 - Visible Passes

Search period start: 26 March 2017 00:00
Search period end: 05 April 2017 00:00
Orbit: 782 x 797 km, 98.8° (Epoch: 24 March)

Date Brightness Start Highest point End Pass type
(mag) Time Alt. Az. Time Alt. Az. Time Alt. Az.
26 Mar ? 03:33:15 10° NNE 03:35:49 25° NE 03:35:49 25° NE visible
26 Mar ? 05:13:15 10° NNW 05:16:32 22° WNW 05:16:32 22° WNW visible
27 Mar ? 03:04:40 10° NE 03:05:57 14° ENE 03:05:57 14° ENE visible
27 Mar ? 04:42:53 10° N 04:46:40 38° NW 04:46:40 38° NW visible
28 Mar ? 04:13:01 10° NNE 04:16:47 50° N 04:16:47 50° N visible
29 Mar ? 03:43:34 10° NNE 03:46:55 35° NE 03:46:55 35° NE visible
29 Mar ? 05:24:11 10° NNW 05:27:34 18° WNW 05:27:38 18° WNW visible
30 Mar ? 03:14:40 10° NE 03:17:01 20° ENE 03:17:01 20° ENE visible
30 Mar ? 04:53:34 10° N 04:57:45 33° WNW 04:57:45 33° WNW visible
31 Mar ? 04:23:33 10° N 04:27:52 58° NNW 04:27:52 58° NNW visible
01 Apr ? 03:53:57 10° NNE 03:57:59 49° NE 03:57:59 49° NE visible
01 Apr ? 05:35:18 10° NNW 05:37:57 14° WNW 05:38:42 14° WNW visible
02 Apr ? 03:24:50 10° NE 03:28:06 27° ENE 03:28:06 27° ENE visible
02 Apr ? 05:04:19 10° NNW 05:08:37 27° WNW 05:08:49 27° WNW visible
03 Apr ? 02:56:39 10° ENE 02:58:13 14° ENE 02:58:13 14° ENE visible
03 Apr ? 04:34:08 10° N 04:38:56 53° WNW 04:38:56 53° WNW visible
04 Apr ? 04:04:24 10° NNE 04:09:03 69° NE 04:09:03 69° NE visible
04 Apr ? 05:46:53 10° NW 05:48:18 11° WNW 05:49:43 10° WNW visible
